• In Hungary
  • List of Countries
  • For 7 days
  • Water Temperature
  • Satellite Maps
  • Weather Map
  • News
  • Weather Widgets
  • user-avatar
    Login

    Hourly Weather Chittaurgarh

    Today, 15 November, Thursday

    Time Temperature Precipitation Wind Pressure Humidity
    00:00 +25°C° 0 mm 2 mps 724 mmHg 43%
    01:00 +25°C° 0 mm 2 mps 724 mmHg 46%
    02:00 +24°C° 0 mm 2 mps 724 mmHg 48%
    03:00 +24°C° 0 mm 2 mps 724 mmHg 47%
    04:00 +23°C° 0 mm 2 mps 724 mmHg 46%
    05:00 +21°C° 0 mm 2 mps 724 mmHg 43%
    06:00 +23°C° 0 mm 2 mps 724 mmHg 40%
    07:00 +24°C° 0 mm 2 mps 725 mmHg 36%
    08:00 +25°C° 0 mm 3 mps 726 mmHg 33%
    09:00 +27°C° 0 mm 3 mps 726 mmHg 28%
    10:00 +29°C° 0 mm 3 mps 726 mmHg 24%
    11:00 +31°C° 0 mm 3 mps 727 mmHg 19%
    12:00 +31°C° 0 mm 3 mps 726 mmHg 18%
    13:00 +33°C° 0 mm 3 mps 726 mmHg 17%
    14:00 +33°C° 0 mm 3 mps 725 mmHg 17%
    15:00 +31°C° 0 mm 3 mps 725 mmHg 19%
    16:00 +29°C° 0 mm 3 mps 725 mmHg 21%
    17:00 +27°C° 0 mm 3 mps 725 mmHg 24%
    18:00 +26°C° 0 mm 3 mps 725 mmHg 24%
    19:00 +25°C° 0 mm 3 mps 725 mmHg 23%
    20:00 +24°C° 0 mm 3 mps 725 mmHg 23%
    21:00 +22°C° 0 mm 3 mps 726 mmHg 24%
    22:00 +22°C° 0 mm 3 mps 726 mmHg 24%
    23:00 +21°C° 0 mm 3 mps 726 mmHg 25%

    Tomorrow, 16 November, Friday

    Time Temperature Precipitation Wind Pressure Humidity
    00:00 +21°C° 0 mm 3 mps 725 mmHg 26%
    01:00 +20°C° 0 mm 3 mps 725 mmHg 27%
    02:00 +20°C° 0 mm 3 mps 725 mmHg 28%
    03:00 +19°C° 0 mm 2 mps 725 mmHg 29%
    04:00 +19°C° 0 mm 2 mps 725 mmHg 30%
    05:00 +18°C° 0 mm 2 mps 725 mmHg 31%
    06:00 +19°C° 0 mm 2 mps 725 mmHg 31%
    07:00 +20°C° 0 mm 2 mps 726 mmHg 31%
    08:00 +21°C° 0 mm 2 mps 727 mmHg 31%
    09:00 +25°C° 0 mm 2 mps 727 mmHg 27%
    10:00 +27°C° 0 mm 2 mps 727 mmHg 24%
    11:00 +29°C° 0 mm 3 mps 727 mmHg 20%
    12:00 +29°C° 0 mm 2 mps 726 mmHg 19%
    13:00 +30°C° 0 mm 2 mps 726 mmHg 17%
    14:00 +31°C° 0 mm 2 mps 725 mmHg 16%
    15:00 +29°C° 0 mm 2 mps 725 mmHg 18%
    16:00 +28°C° 0 mm 1 mps 724 mmHg 20%
    17:00 +27°C° 0 mm 1 mps 724 mmHg 23%
    18:00 +26°C° 0 mm 1 mps 724 mmHg 23%
    19:00 +25°C° 0 mm 1 mps 725 mmHg 23%
    20:00 +24°C° 0 mm 1 mps 725 mmHg 24%
    21:00 +23°C° 0 mm 1 mps 725 mmHg 24%
    22:00 +23°C° 0 mm 1 mps 725 mmHg 25%
    23:00 +22°C° 0 mm 1 mps 725 mmHg 26%

    Day after tomorrow, 17 November, Saturday

    Time Temperature Precipitation Wind Pressure Humidity
    00:00 +22°C° 0 mm 1 mps 725 mmHg 27%
    01:00 +21°C° 0 mm 1 mps 724 mmHg 28%
    02:00 +21°C° 0 mm 1 mps 724 mmHg 28%
    03:00 +18°C° 0 mm 0 mps 724 mmHg 29%
    04:00 +18°C° 0 mm 0 mps 724 mmHg 29%
    05:00 +18°C° 0 mm 0 mps 724 mmHg 30%
    06:00 +19°C° 0 mm 0 mps 724 mmHg 29%
    07:00 +20°C° 0 mm 0 mps 725 mmHg 28%
    08:00 +24°C° 0 mm 1 mps 725 mmHg 27%
    09:00 +26°C° 0 mm 1 mps 725 mmHg 24%
    10:00 +28°C° 0 mm 1 mps 725 mmHg 21%
    11:00 +30°C° 0 mm 1 mps 725 mmHg 18%
    12:00 +31°C° 0 mm 1 mps 725 mmHg 17%
    13:00 +31°C° 0 mm 1 mps 724 mmHg 16%
    14:00 +32°C° 0 mm 1 mps 723 mmHg 15%
    15:00 +31°C° 0 mm 1 mps 723 mmHg 17%
    16:00 +29°C° 0 mm 1 mps 722 mmHg 20%
    17:00 +28°C° 0 mm 1 mps 722 mmHg 22%
    18:00 +27°C° 0 mm 1 mps 723 mmHg 22%
    19:00 +26°C° 0 mm 1 mps 723 mmHg 23%
    20:00 +25°C° 0 mm 1 mps 723 mmHg 23%
    21:00 +24°C° 0 mm 1 mps 723 mmHg 24%
    22:00 +24°C° 0 mm 1 mps 723 mmHg 25%
    23:00 +23°C° 0 mm 1 mps 723 mmHg 26%

    18 November, Sunday

    Time Temperature Precipitation Wind Pressure Humidity
    00:00 +23°C° 0 mm 1 mps 723 mmHg 27%
    01:00 +22°C° 0 mm 1 mps 723 mmHg 28%
    02:00 +22°C° 0 mm 1 mps 723 mmHg 29%
    03:00 +22°C° 0 mm 1 mps 723 mmHg 29%
    04:00 +21°C° 0 mm 1 mps 723 mmHg 30%
    05:00 +21°C° 0 mm 1 mps 723 mmHg 30%
    06:00 +22°C° 0 mm 1 mps 724 mmHg 29%
    07:00 +24°C° 0 mm 1 mps 724 mmHg 28%
    08:00 +25°C° 0 mm 1 mps 725 mmHg 28%
    09:00 +27°C° 0 mm 1 mps 725 mmHg 25%
    10:00 +29°C° 0 mm 1 mps 725 mmHg 22%
    11:00 +31°C° 0 mm 2 mps 725 mmHg 19%
    12:00 +32°C° 0 mm 1 mps 725 mmHg 18%
    13:00 +33°C° 0 mm 1 mps 724 mmHg 17%
    14:00 +33°C° 0 mm 1 mps 723 mmHg 16%
    15:00 +32°C° 0 mm 1 mps 723 mmHg 19%
    16:00 +31°C° 0 mm 1 mps 723 mmHg 21%
    17:00 +29°C° 0 mm 1 mps 723 mmHg 24%
    18:00 +28°C° 0 mm 1 mps 723 mmHg 25%
    19:00 +27°C° 0 mm 1 mps 724 mmHg 25%
    20:00 +26°C° 0 mm 1 mps 724 mmHg 26%
    21:00 +25°C° 0 mm 1 mps 724 mmHg 27%
    22:00 +25°C° 0 mm 1 mps 724 mmHg 28%
    23:00 +24°C° 0 mm 1 mps 724 mmHg 29%

    19 November, Monday

    Time Temperature Precipitation Wind Pressure Humidity
    00:00 +24°C° 0 mm 1 mps 724 mmHg 30%
    01:00 +23°C° 0 mm 1 mps 724 mmHg 31%
    02:00 +23°C° 0 mm 1 mps 724 mmHg 32%
    03:00 +23°C° 0 mm 1 mps 724 mmHg 32%
    04:00 +22°C° 0 mm 1 mps 724 mmHg 33%
    05:00 +22°C° 0 mm 1 mps 724 mmHg 33%
    06:00 +23°C° 0 mm 1 mps 724 mmHg 32%
    07:00 +24°C° 0 mm 1 mps 725 mmHg 31%
    08:00 +26°C° 0 mm 1 mps 726 mmHg 29%
    09:00 +28°C° 0 mm 1 mps 726 mmHg 27%
    10:00 +30°C° 0 mm 1 mps 726 mmHg 24%
    11:00 +32°C° 0 mm 1 mps 727 mmHg 21%
    12:00 +33°C° 0 mm 1 mps 726 mmHg 20%
    13:00 +33°C° 0 mm 1 mps 725 mmHg 19%
    14:00 +34°C° 0 mm 1 mps 725 mmHg 18%
    15:00 +33°C° 0 mm 1 mps 724 mmHg 20%
    16:00 +31°C° 0 mm 1 mps 724 mmHg 23%
    17:00 +30°C° 0 mm 1 mps 724 mmHg 25%
    18:00 +29°C° 0 mm 1 mps 724 mmHg 26%
    19:00 +28°C° 0 mm 1 mps 725 mmHg 26%
    20:00 +27°C° 0 mm 1 mps 725 mmHg 27%
    21:00 +26°C° 0 mm 1 mps 725 mmHg 28%
    22:00 +26°C° 0 mm 1 mps 725 mmHg 29%
    23:00 +25°C° 0 mm 1 mps 725 mmHg 30%

    20 November, Tuesday

    Time Temperature Precipitation Wind Pressure Humidity
    00:00 +25°C° 0 mm 1 mps 725 mmHg 31%
    01:00 +24°C° 0 mm 1 mps 725 mmHg 32%
    02:00 +24°C° 0 mm 1 mps 724 mmHg 33%
    03:00 +24°C° 0 mm 1 mps 724 mmHg 34%
    04:00 +23°C° 0 mm 1 mps 724 mmHg 35%
    05:00 +23°C° 0 mm 1 mps 724 mmHg 36%
    06:00 +24°C° 0 mm 1 mps 725 mmHg 35%
    07:00 +25°C° 0 mm 1 mps 726 mmHg 34%
    08:00 +26°C° 0 mm 1 mps 727 mmHg 32%
    09:00 +28°C° 0 mm 1 mps 727 mmHg 29%
    10:00 +30°C° 0 mm 1 mps 727 mmHg 26%
    11:00 +32°C° 0 mm 1 mps 727 mmHg 23%
    12:00 +33°C° 0 mm 1 mps 726 mmHg 22%
    13:00 +33°C° 0 mm 1 mps 725 mmHg 21%
    14:00 +34°C° 0 mm 1 mps 725 mmHg 20%
    15:00 +33°C° 0 mm 1 mps 725 mmHg 22%
    16:00 +31°C° 0 mm 1 mps 724 mmHg 24%
    17:00 +30°C° 0 mm 1 mps 724 mmHg 27%
    18:00 +29°C° 0 mm 1 mps 725 mmHg 28%
    19:00 +28°C° 0 mm 1 mps 725 mmHg 29%
    20:00 +27°C° 0 mm 1 mps 726 mmHg 30%
    21:00 +26°C° 0 mm 1 mps 726 mmHg 31%
    22:00 +26°C° 0 mm 1 mps 726 mmHg 32%
    23:00 +25°C° 0 mm 1 mps 726 mmHg 34%
    Show more